De Queen, AR

5:35 AM CDT on May 26, 2020 (GMT -0500)
Helms Sevier County

Weather History for KDEQ - October, 2019

Change the Weather History Date:

Saturday, October 26, 2019

  Actual Average Record
Temperature  
Mean Temperature 54 °F 60 °F  
Max Temperature 61 °F 73 °F 87 °F (1963)
Min Temperature 46 °F 47 °F 29 °F (1957)
Degree Days  
Heating Degree Days 12 6  
Month to date heating degree days 116 91  
Since 1 July heating degree days 116 100  
Cooling Degree Days 0 2  
Month to date cooling degree days 96 66  
Year to date cooling degree days 2313 1931  
Growing Degree Days 4 (Base 50)    
Moisture  
Dew Point 50 °F    
Average Humidity 88    
Maximum Humidity 96    
Minimum Humidity 72    
Precipitation  
Precipitation 0.21 in 0.14 in 1.67 in (1960)
Month to date precipitation 3.74 3.87  
Year to date precipitation 45.83 39.07  
Snow  
Snow 0.00 in - - ()
Month to date snowfall 0.0  
Since 1 July snowfall 0.0  
Since 1 September snowfall 0.0  
Snow Depth 0.00 in    
Sea Level Pressure  
Sea Level Pressure 29.80 in    
Wind  
Wind Speed 4 mph ()    
Max Wind Speed 14 mph    
Max Gust Speed 19 mph    
Visibility 5.6 miles    
Events Fog , Rain    
T = Trace of Precipitation, MM = Missing Value Source: Averaged Metar Reports

Daily Weather History Graph

Daily Weather History Graph

Search for Another Location

Airport or City:

Astronomy

Oct. 26, 2019 Rise Set
Actual Time 7:31 AM CDT 6:30 PM CDT
Civil Twilight 7:06 AM CDT 6:56 PM CDT
Nautical Twilight 6:36 AM CDT 7:25 PM CDT
Astronomical Twilight 6:07 AM CDT 7:54 PM CDT
Moon 5:37 AM CDT 6:00 PM CDT
Length of Visible Light 11h 50m
Length of Day
10h 59m
Waning Crescent, 3% of the Moon is Illuminated
Oct 26
Waning Crescent
Oct 27
New
Nov 4
First Quarter
Nov 12
Full
Nov 19
Last Quarter

Hourly Weather History & Observations

Time (CDT) Temp. Dew Point Humidity Pressure Visibility Wind Dir Wind Speed Gust Speed Precip Events Conditions
12:11 AM 54.0 °F 51.1 °F 90% 29.88 in 6.0 mi NNW 3.5 mph - N/A   Overcast
12:53 AM 53.1 °F 50.0 °F 89% 29.86 in 10.0 mi Calm Calm - N/A Rain Light Rain
1:20 AM 53.1 °F 50.0 °F 89% 29.86 in 2.5 mi West 4.6 mph - 0.01 in Rain Rain
1:53 AM 53.1 °F 51.1 °F 93% 29.83 in 2.0 mi NW 3.5 mph - 0.01 in Rain Light Rain
2:07 AM 53.1 °F 51.1 °F 93% 29.84 in 4.0 mi West 4.6 mph - 0.00 in Rain Light Rain
2:35 AM 53.1 °F 51.1 °F 93% 29.83 in 4.0 mi West 4.6 mph - 0.00 in   Overcast
2:48 AM 53.6 °F 51.8 °F 94% 29.82 in 2.5 mi NW 4.6 mph - 0.00 in Rain Light Rain
2:49 AM 53.1 °F 51.1 °F 93% 29.82 in 2.5 mi NW 4.6 mph - 0.00 in Rain Light Rain
3:02 AM 53.1 °F 51.1 °F 93% 29.82 in 2.5 mi Variable 3.5 mph - 0.00 in Rain Light Rain
3:09 AM 53.1 °F 51.1 °F 93% 29.82 in 3.0 mi WNW 3.5 mph - 0.00 in Rain Light Rain
3:26 AM 53.1 °F 51.1 °F 93% 29.81 in 3.0 mi WNW 4.6 mph - 0.00 in Rain Light Rain
3:35 AM 53.1 °F 51.1 °F 93% 29.81 in 2.5 mi West 4.6 mph - 0.00 in Rain Light Rain
3:43 AM 53.1 °F 51.1 °F 93% 29.81 in 3.0 mi WNW 5.8 mph - 0.00 in Rain Light Rain
3:53 AM 53.1 °F 51.1 °F 93% 29.80 in 3.0 mi WNW 4.6 mph - 0.00 in Rain Light Rain
4:00 AM 53.1 °F 51.1 °F 93% 29.80 in 3.0 mi Calm Calm - 0.00 in Rain Light Rain
4:04 AM 53.1 °F 51.1 °F 93% 29.80 in 2.5 mi Calm Calm - 0.00 in Rain Light Rain
4:30 AM 53.1 °F 51.1 °F 93% 29.78 in 3.0 mi Variable 3.5 mph - 0.00 in Rain Light Rain
4:40 AM 53.1 °F 51.1 °F 93% 29.78 in 4.0 mi Variable 3.5 mph - 0.00 in Rain Light Rain
4:53 AM 53.1 °F 51.1 °F 93% 29.77 in 8.0 mi Calm Calm - 0.00 in   Overcast
5:26 AM 53.1 °F 50.0 °F 89% 29.76 in 10.0 mi Calm Calm - N/A   Overcast
5:53 AM 53.1 °F 50.0 °F 89% 29.75 in 10.0 mi NW 4.6 mph - N/A   Overcast
6:25 AM 53.1 °F 50.0 °F 89% 29.76 in 10.0 mi West 6.9 mph - N/A   Overcast
6:44 AM 53.1 °F 50.0 °F 89% 29.76 in 10.0 mi West 4.6 mph - N/A   Overcast
6:53 AM 53.1 °F 50.0 °F 89% 29.75 in 10.0 mi West 4.6 mph - N/A   Overcast
7:53 AM 53.1 °F 50.0 °F 89% 29.74 in 10.0 mi West 3.5 mph - N/A   Overcast
8:53 AM 54.0 °F 50.0 °F 86% 29.74 in 10.0 mi WSW 4.6 mph - N/A   Overcast
9:32 AM 54.0 °F 51.1 °F 90% 29.76 in 5.0 mi WSW 8.1 mph - N/A   Overcast
9:43 AM 54.0 °F 51.1 °F 90% 29.76 in 3.0 mi West 9.2 mph - N/A   Overcast
9:53 AM 54.0 °F 51.1 °F 90% 29.76 in 3.0 mi West 10.4 mph - N/A   Overcast
10:53 AM 54.0 °F 52.0 °F 93% 29.76 in 4.0 mi West 10.4 mph - 0.00 in   Overcast
11:25 AM 55.0 °F 51.1 °F 86% 29.77 in 8.0 mi West 11.5 mph - N/A   Overcast
11:39 AM 54.0 °F 51.1 °F 90% 29.77 in 8.0 mi WNW 8.1 mph - N/A   Overcast
11:53 AM 55.0 °F 51.1 °F 86% 29.76 in 7.0 mi West 10.4 mph - N/A   Overcast
12:19 PM 54.0 °F 50.0 °F 86% 29.77 in 10.0 mi WNW 9.2 mph 17.3 mph N/A   Overcast
12:53 PM 54.0 °F 50.0 °F 86% 29.77 in 10.0 mi WNW 10.4 mph - N/A   Overcast
1:22 PM 57.0 °F 52.0 °F 83% 29.77 in 10.0 mi WNW 6.9 mph - N/A   Overcast
1:51 PM 59.0 °F 50.0 °F 72% 29.76 in 10.0 mi NW 11.5 mph - N/A   Mostly Cloudy
1:53 PM 57.9 °F 50.0 °F 75% 29.75 in 10.0 mi NW 10.4 mph - N/A   Mostly Cloudy
2:07 PM 59.0 °F 50.0 °F 72% 29.75 in 10.0 mi NW 10.4 mph 17.3 mph N/A   Mostly Cloudy
2:53 PM 59.0 °F 50.0 °F 72% 29.74 in 10.0 mi WNW 10.4 mph - N/A   Mostly Cloudy
3:53 PM 55.9 °F 48.9 °F 77% 29.76 in 10.0 mi West 9.2 mph - N/A   Overcast
4:35 PM 57.0 °F 50.0 °F 77% 29.77 in 10.0 mi WNW 4.6 mph - N/A   Overcast
4:53 PM 55.9 °F 50.0 °F 80% 29.77 in 10.0 mi WNW 6.9 mph - N/A   Overcast
5:01 PM 55.9 °F 50.0 °F 80% 29.78 in 10.0 mi West 8.1 mph - N/A   Overcast
5:41 PM 55.9 °F 50.0 °F 80% 29.80 in 10.0 mi WNW 5.8 mph - N/A   Overcast
5:53 PM 55.9 °F 50.0 °F 80% 29.79 in 10.0 mi Calm Calm - N/A   Overcast
6:46 PM 55.0 °F 50.0 °F 83% 29.81 in 10.0 mi Calm Calm - N/A   Scattered Clouds
6:53 PM 54.0 °F 50.0 °F 86% 29.80 in 10.0 mi Calm Calm - N/A   Partly Cloudy
7:53 PM 50.0 °F 48.9 °F 96% 29.82 in 2.0 mi Calm Calm - N/A   Clear
8:00 PM 51.1 °F 48.9 °F 92% 29.82 in 1.5 mi Calm Calm - N/A   Clear
8:11 PM 50.0 °F 48.0 °F 93% 29.82 in 0.5 mi Calm Calm - N/A Fog Fog
8:18 PM 51.1 °F 48.0 °F 89% 29.82 in 0.2 mi Calm Calm - N/A Fog Fog
8:32 PM 50.0 °F 48.0 °F 93% 29.83 in 1.0 mi Calm Calm - N/A   Mist
8:43 PM 48.9 °F 46.9 °F 93% 29.83 in 0.5 mi Calm Calm - N/A Fog Fog
9:53 PM 48.0 °F 46.0 °F 93% 29.85 in 0.2 mi Calm Calm - N/A Fog Fog
10:26 PM 46.9 °F 45.0 °F 93% 29.86 in 0.5 mi Calm Calm - N/A Fog Fog
10:33 PM 46.9 °F 45.0 °F 93% 29.86 in 0.2 mi Calm Calm - N/A Fog Fog
10:53 PM 46.0 °F 44.1 °F 93% 29.87 in 0.5 mi Calm Calm - N/A Fog Fog
11:04 PM 46.0 °F 44.1 °F 93% 29.87 in 0.2 mi Calm Calm - N/A Fog Fog
11:53 PM 46.0 °F 44.1 °F 93% 29.88 in 0.2 mi Calm Calm - N/A Fog Fog